レモン彗星

405P/Lemmon (2020)

English version
Home page
Updated on February 21, 2021

---------------------------------------------------------------------

・ プロフィール

符号 405P/2020 U1
検出日 2020年10月17日、22日、23日、25日
検出光度 18.8等、18.7等、18.1等
検出者 E. Schwab (Egelsbach, Germany), D. D. Balam and C. E. Spratt (Plaskett telescope at Victoria, BC, Canada), T. Ikemura (Nagoya, Aichi-ken, Japan) and Hirohisa Sato (Sukagawa, Fukushima-ken, Japan), R. Weryk (Pan-STARRS1, Haleakala)

・ 写真集

・ 軌道要素

Epoch 2020 Dec. 17.0 TT = JDT 2459200.5
T 2020 Dec. 24.31951 TT                                 Rudenko
q   1.1219066            (2000.0)            P               Q
n   0.14367824     Peri.  112.24828     -0.43077550     -0.90241011
a   3.6102897      Node     3.31378     +0.75647114     -0.36675421
e   0.6892475      Incl.    9.36482     +0.49212183     -0.22615779
P   6.86
From 884 observations 2013 Oct. 4-2021 Jan. 22, mean residual 0".9.

・ 星図

・ 光度変化

        m1 = 18.0 + 5 logΔ + 8.0 log r(t + 15)

---------------------------------------------------------------------

軌道要素はM.P.E.C. 2021-B143に掲載されたものです。
星図はステラナビゲータ Ver.10 (アストロアーツ) で作成したものです。
光度グラフはComet for Windowsで作成したものです。

---------------------------------------------------------------------

Copyright(C) Seiichi Yoshida (comet@aerith.net). All rights reserved.